Wind_Speed
25 24 24 24 24 24 25 26 27 28 29 29 30 30 31 32 33 34 36 38 40 41 41 42 44 44 46 47 49 50 51 52 52 52 53 53 54 53 53 55 56 58 58 58
24 24 23 23 23 24 25 25 26 26 26 28 29 30 30 31 32 34 35 37 39 40 40 41 43 44 46 48 49 50 51 51 52 53 53 53 53 53 53 54 55 57 57 57
24 23 23 23 23 23 24 24 25 25 26 26 27 28 29 30 31 32 33 34 36 38 39 40 41 43 46 48 50 51 51 51 51 52 54 55 53 53 53 54 55 56 57 57
24 23 23 22 22 22 23 24 25 25 26 26 27 27 28 29 30 31 32 33 34 36 37 39 40 42 43 45 47 49 50 51 52 52 52 53 54 53 53 54 55 56 57 58
25 24 23 22 22 23 23 22 24 25 25 26 26 26 26 28 29 30 31 32 33 34 36 37 39 41 43 44 46 47 49 51 51 52 53 53 53 53 52 53 53 54 56 57
25 25 24 23 23 23 24 23 24 25 25 25 25 25 25 27 28 29 30 31 31 32 34 36 38 39 41 42 44 45 47 49 50 52 53 54 54 53 53 52 52 53 55 56
25 26 25 24 24 24 24 24 24 24 25 25 25 25 25 26 27 28 29 30 30 31 33 34 36 37 38 40 42 44 45 47 47 49 51 52 53 54 54 53 52 52 53 54
26 26 26 26 25 25 25 25 26 26 26 25 25 25 25 25 26 27 28 29 30 31 31 32 33 35 36 38 40 42 44 45 46 48 49 50 51 53 53 53 53 53 53 53
28 27 27 27 27 27 27 26 27 27 26 26 26 25 25 25 26 27 27 28 29 29 30 31 32 33 34 35 37 39 41 42 44 45 47 48 49 50 51 52 52 52 52 52
28 27 27 28 28 29 28 28 28 28 28 27 26 26 25 26 26 27 27 28 28 28 28 29 30 31 32 33 34 35 37 39 40 42 44 45 46 47 48 49 50 50 50 51
28 28 29 29 30 30 30 29 29 28 28 27 27 27 26 26 26 26 27 27 27 27 27 27 28 29 29 30 31 33 34 35 37 39 40 42 43 44 46 47 49 50 50 51
30 30 30 30 30 30 29 28 28 27 27 27 27 27 27 26 26 26 26 27 26 27 26 26 26 27 28 29 29 30 31 32 33 35 37 38 40 42 43 43 45 47 49 50
31 31 30 30 30 29 29 28 28 27 27 27 27 27 27 27 27 26 26 26 25 25 24 24 25 26 26 28 28 29 29 29 30 31 33 34 36 38 39 40 42 45 47 49
30 30 30 30 30 29 29 28 28 27 27 27 27 27 27 27 26 26 25 25 24 23 23 23 23 24 25 26 27 27 28 28 28 29 30 31 32 34 36 37 39 41 42 44
30 30 29 29 29 29 29 28 28 27 27 27 27 27 27 26 26 25 24 24 24 23 23 23 23 24 24 25 25 25 25 26 27 27 27 29 30 31 33 35 36 37 39 41
30 29 29 29 29 29 28 27 27 27 26 26 26 26 26 25 24 24 23 23 23 23 23 23 23 23 24 24 24 24 24 24 24 25 26 27 28 29 30 31 33 35 36 37
29 29 29 29 28 28 28 27 27 26 26 26 26 26 25 24 23 23 23 22 22 21 21 21 21 22 23 22 22 22 22 22 22 23 24 25 26 27 27 28 29 31 33 34
30 29 29 28 28 28 28 27 27 26 26 26 26 25 25 24 23 23 23 23 22 21 21 20 20 20 20 20 20 20 20 21 21 21 22 23 24 24 25 26 27 29 31 32
30 30 30 29 28 28 28 27 27 27 26 26 25 25 24 24 23 23 22 22 22 21 21 21 20 20 20 20 19 18 18 18 19 19 20 21 22 23 23 24 25 27 28 30
31 31 30 30 29 28 28 28 27 27 27 26 25 25 24 24 23 23 23 22 22 22 22 22 21 21 21 20 20 19 19 19 19 19 20 19 20 21 22 23 24 25 26 27
31 31 31 30 29 29 28 28 28 27 27 26 25 25 24 24 24 23 22 22 22 22 22 22 22 21 21 21 20 20 20 20 20 20 20 20 21 21 21 22 23 24 25 26
32 31 31 30 30 29 29 28 28 27 27 26 25 25 24 24 24 23 22 22 21 22 22 21 21 21 21 21 21 21 22 21 21 21 22 22 22 22 22 23 24 24 24 25
32 32 31 30 30 29 29 28 28 28 27 26 26 25 24 24 23 23 22 21 21 21 21 22 22 22 22 22 22 22 22 22 23 23 23 23 23 23 23 24 24 25 25 25
32 32 31 30 30 29 29 28 28 28 27 27 26 25 24 24 23 22 22 22 22 21 21 22 22 22 23 23 23 23 23 23 23 23 24 24 24 24 24 24 25 25 25 25
32 32 31 30 30 29 29 29 29 28 28 27 26 25 24 23 22 22 22 22 22 22 22 22 22 23 23 23 23 23 23 23 24 24 24 25 25 25 25 25 25 25 25 26
32 32 31 30 30 29 29 29 29 29 28 27 26 25 24 23 23 22 22 22 22 22 22 22 22 22 22 22 23 23 23 23 23 24 24 25 25 25 25 25 25 26 26 26
32 31 31 31 30 29 29 29 29 28 27 26 25 25 24 23 22 21 21 20 20 20 21 21 21 21 21 21 21 22 22 22 22 23 23 24 24 25 25 25 26 26 26 26
Wind_Direction
310 306 301 297 291 288 284 282 282 277 271 270 272 273 273 271 268 266 263 260 257 256 255 253 250 248 246 244 243 243 243 245 245 244 243 243 243 243 243 242 242 242 241 242
312 308 305 302 296 290 287 286 285 281 277 275 275 275 275 273 270 268 265 262 259 257 256 255 253 250 248 246 245 245 245 245 246 244 242 243 243 243 243 242 242 242 242 241
313 309 306 305 303 296 291 289 287 284 281 279 276 276 276 274 272 270 268 265 262 259 256 255 254 252 251 250 249 247 246 246 246 245 244 243 244 245 244 243 242 242 242 241
314 311 309 309 308 302 297 293 291 288 285 281 279 278 277 276 274 271 270 267 263 260 258 257 255 255 254 252 251 249 248 248 248 247 245 244 244 246 245 244 243 243 243 242
317 315 313 312 309 306 303 299 295 293 290 286 283 280 278 277 275 272 270 269 266 263 261 259 257 256 256 254 253 251 250 250 250 249 247 245 245 246 246 245 245 244 244 243
317 316 318 317 313 309 307 304 301 298 295 292 287 283 279 276 275 273 272 269 267 265 263 261 260 258 256 255 255 254 254 252 252 251 249 248 247 246 246 246 246 246 245 244
316 314 316 317 313 311 308 307 305 303 300 297 292 289 284 279 277 275 274 272 269 268 265 263 261 260 258 256 256 256 255 254 253 252 251 249 248 248 248 248 247 247 245 245
316 315 315 314 312 310 309 307 304 303 301 299 295 291 287 284 281 279 277 275 272 271 269 266 263 262 261 259 258 258 257 256 254 253 252 250 249 249 249 248 248 247 246 245
316 316 314 312 310 310 308 305 303 301 300 298 295 291 288 285 284 282 280 278 276 273 271 269 266 265 263 262 260 259 258 257 255 253 251 251 250 248 248 248 247 247 246 246
314 314 312 311 309 308 307 305 302 301 299 297 296 293 290 288 287 285 283 281 278 276 274 272 271 270 267 265 262 260 258 257 255 253 252 251 249 248 248 247 247 246 246 246
311 311 310 310 310 308 306 304 302 300 299 297 295 293 291 290 288 287 285 284 281 278 276 274 273 273 271 268 265 264 262 258 255 254 252 251 250 249 249 249 248 247 247 246
312 310 309 310 310 309 307 305 303 300 297 296 294 293 292 290 289 288 287 284 282 279 277 275 274 274 272 269 268 266 263 261 258 256 255 253 252 251 250 249 248 247 247 246
313 312 311 311 310 310 308 306 304 301 298 296 295 295 293 291 290 288 287 284 282 279 277 277 276 275 273 271 269 268 266 263 261 259 257 255 254 252 249 248 249 247 247 247
315 314 313 311 310 309 307 306 304 302 300 298 298 297 295 292 291 289 287 284 282 279 277 278 277 276 274 273 271 269 267 266 263 261 259 257 255 253 251 250 250 248 246 246
316 315 314 312 311 310 308 306 304 303 301 300 300 298 296 294 292 290 288 287 285 282 279 278 277 277 275 274 273 271 269 267 265 263 260 258 255 253 252 251 251 248 247 246
317 316 315 314 313 313 311 309 306 303 302 301 300 299 298 296 293 291 288 287 287 285 283 280 278 277 277 275 273 271 269 267 266 264 261 259 256 255 254 253 251 248 246 246
319 317 317 316 315 314 313 311 308 305 302 300 300 300 298 296 294 291 289 288 287 286 284 282 280 278 277 276 273 271 269 268 267 266 264 261 259 258 256 254 252 249 247 246
320 319 319 317 316 315 314 313 311 307 304 302 301 300 299 296 294 291 288 286 286 285 285 283 281 279 278 277 275 272 269 267 266 266 265 263 261 259 257 256 254 251 248 247
320 320 319 318 317 316 315 314 312 310 307 305 302 300 298 296 293 290 287 285 285 284 282 281 281 279 278 277 274 272 270 268 268 268 267 265 262 259 257 256 255 254 252 251
320 320 320 318 317 317 315 314 313 311 309 306 303 300 298 295 293 291 287 285 284 282 281 281 280 278 277 275 272 270 269 268 268 267 266 266 264 261 259 258 257 256 255 252
320 321 321 319 318 318 317 316 315 313 312 309 305 301 298 295 293 291 289 286 284 282 281 280 279 278 277 275 271 268 267 268 268 268 267 266 266 264 262 261 261 260 258 255
320 320 320 319 318 318 318 317 316 315 313 310 306 303 299 296 293 291 289 286 284 282 281 280 279 278 276 275 272 270 269 269 268 268 268 267 266 266 265 262 261 260 259 257
319 318 318 318 318 318 317 317 316 315 313 311 308 304 302 299 295 292 289 287 285 283 281 280 278 277 276 275 273 271 270 270 270 268 268 268 268 268 266 265 263 261 260 259
317 317 316 316 316 316 316 317 316 315 314 312 310 307 304 301 297 294 291 289 287 284 282 280 278 277 275 274 273 272 272 271 269 268 268 268 269 268 267 266 265 263 262 260
317 316 315 315 314 314 315 316 316 315 315 313 311 309 306 303 300 297 294 291 289 286 283 280 278 276 275 274 273 272 272 272 271 270 269 268 268 268 269 268 266 264 263 262
316 316 316 315 314 313 314 314 314 314 313 312 311 310 307 304 301 299 296 293 290 287 284 281 279 277 276 275 274 273 273 272 272 272 271 269 269 269 268 268 267 266 264 263
315 315 315 315 315 314 314 313 313 313 313 311 310 309 308 305 302 299 298 296 293 290 287 283 280 278 277 276 275 274 274 273 273 272 272 272 271 270 268 267 266 265 265 264
Height
5549 5545 5542 5541 5539 5536 5534 5532 5531 5531 5530 5529 5528 5527 5526 5525 5525 5525 5525 5525 5526 5527 5528 5530 5532 5535 5538 5541 5545 5548 5552 5555 5559 5563 5568 5572 5576 5581 5586 5591 5595 5600 5605 5611
5545 5541 5538 5536 5534 5531 5529 5527 5525 5524 5523 5522 5521 5519 5518 5517 5516 5516 5516 5516 5516 5517 5519 5520 5522 5524 5527 5530 5533 5536 5540 5543 5546 5550 5555 5559 5564 5568 5572 5577 5582 5587 5592 5597
5540 5537 5534 5532 5529 5526 5523 5521 5519 5518 5517 5515 5514 5512 5511 5509 5508 5507 5507 5507 5507 5508 5509 5510 5512 5514 5516 5519 5521 5524 5528 5531 5534 5538 5542 5546 5551 5555 5558 5563 5568 5573 5578 5583
5535 5533 5530 5530 5524 5521 5518 5516 5513 5511 5509 5508 5506 5505 5503 5502 5500 5499 5499 5498 5498 5499 5500 5501 5502 5503 5505 5507 5509 5512 5515 5519 5522 5525 5529 5533 5537 5541 5545 5549 5554 5559 5564 5569
5530 5527 5525 5524 5519 5515 5513 5511 5508 5505 5503 5501 5499 5498 5497 5494 5493 5491 5490 5490 5489 5489 5490 5491 5492 5493 5495 5496 5498 5501 5503 5506 5509 5511 5515 5519 5523 5528 5532 5536 5540 5544 5550 5555
5525 5522 5519 5519 5514 5510 5508 5505 5502 5499 5496 5494 5492 5491 5490 5487 5485 5484 5482 5482 5481 5481 5481 5481 5482 5482 5484 5485 5487 5489 5491 5493 5496 5498 5502 5506 5510 5514 5518 5522 5526 5530 5535 5540
5521 5517 5515 5513 5508 5505 5503 5500 5496 5493 5490 5487 5485 5483 5482 5479 5477 5476 5474 5473 5472 5472 5471 5471 5471 5472 5473 5474 5476 5477 5479 5481 5483 5486 5489 5492 5496 5500 5504 5508 5513 5517 5521 5526
5516 5513 5512 5506 5503 5500 5497 5493 5489 5486 5483 5481 5478 5476 5474 5472 5470 5468 5466 5465 5463 5463 5462 5462 5461 5461 5462 5463 5464 5465 5466 5469 5470 5473 5475 5478 5482 5486 5490 5494 5498 5503 5507 5512
5513 5511 5505 5500 5496 5493 5490 5487 5483 5480 5477 5474 5471 5469 5467 5465 5462 5460 5458 5457 5455 5454 5453 5453 5452 5451 5452 5452 5452 5453 5455 5456 5458 5460 5462 5465 5468 5472 5476 5480 5484 5489 5494 5499
5506 5504 5499 5495 5490 5487 5483 5479 5476 5472 5469 5466 5464 5462 5459 5457 5455 5453 5450 5449 5447 5446 5445 5444 5443 5442 5442 5442 5442 5442 5443 5444 5446 5447 5450 5452 5455 5458 5462 5466 5470 5475 5480 5485
5500 5497 5493 5489 5484 5480 5476 5472 5469 5465 5462 5459 5456 5454 5451 5449 5447 5445 5443 5440 5439 5437 5436 5435 5434 5433 5432 5432 5432 5432 5433 5433 5434 5436 5438 5440 5443 5446 5449 5453 5456 5462 5467 5472
5494 5490 5486 5483 5478 5473 5469 5466 5462 5459 5455 5452 5449 5446 5444 5441 5439 5437 5435 5433 5431 5429 5428 5427 5426 5425 5424 5423 5423 5423 5423 5424 5424 5425 5427 5429 5431 5434 5436 5440 5443 5448 5453 5458
5488 5483 5479 5475 5470 5466 5462 5458 5455 5451 5448 5445 5442 5439 5436 5434 5431 5429 5427 5425 5423 5421 5420 5419 5418 5417 5416 5415 5415 5415 5415 5415 5415 5416 5417 5418 5420 5423 5426 5428 5431 5436 5440 5445
5481 5476 5472 5468 5463 5459 5455 5451 5448 5444 5441 5438 5435 5431 5429 5426 5423 5421 5419 5417 5415 5414 5413 5412 5411 5410 5409 5407 5407 5407 5407 5407 5407 5407 5408 5409 5410 5412 5415 5417 5420 5424 5428 5432
5474 5470 5465 5461 5456 5452 5448 5444 5440 5437 5434 5430 5427 5424 5421 5419 5416 5414 5412 5410 5408 5407 5405 5404 5403 5402 5401 5400 5399 5399 5399 5398 5398 5399 5399 5400 5401 5403 5405 5408 5410 5413 5417 5420
5467 5463 5458 5454 5449 5445 5441 5437 5433 5430 5427 5424 5420 5417 5414 5411 5409 5407 5405 5403 5402 5400 5398 5397 5396 5395 5393 5392 5392 5392 5391 5391 5391 5391 5392 5393 5394 5395 5397 5399 5401 5403 5407 5410
5461 5457 5452 5448 5443 5439 5434 5430 5427 5423 5420 5417 5414 5411 5408 5405 5403 5400 5398 5397 5395 5393 5392 5390 5389 5388 5387 5386 5385 5385 5384 5384 5384 5384 5385 5385 5386 5387 5389 5390 5392 5395 5397 5400
5455 5450 5446 5441 5437 5433 5428 5424 5420 5416 5413 5410 5407 5404 5401 5398 5396 5394 5392 5390 5389 5387 5385 5384 5383 5382 5380 5379 5379 5378 5378 5378 5378 5378 5378 5378 5379 5380 5381 5383 5385 5387 5389 5391
5449 5444 5440 5435 5431 5426 5422 5418 5414 5410 5406 5403 5400 5397 5394 5391 5389 5387 5385 5384 5382 5381 5379 5378 5377 5376 5375 5373 5373 5372 5372 5372 5372 5372 5372 5372 5373 5373 5375 5376 5377 5379 5381 5383
5442 5438 5433 5428 5424 5420 5416 5411 5407 5403 5400 5396 5393 5390 5387 5384 5382 5380 5378 5377 5375 5374 5372 5371 5370 5369 5368 5367 5367 5366 5366 5366 5366 5366 5366 5367 5367 5367 5368 5369 5371 5372 5373 5374
5436 5431 5427 5422 5418 5413 5409 5405 5401 5397 5393 5389 5386 5383 5380 5377 5375 5373 5371 5370 5368 5366 5365 5364 5363 5362 5362 5361 5360 5360 5360 5360 5360 5360 5361 5361 5361 5362 5362 5363 5363 5364 5365 5366
5430 5425 5420 5416 5411 5407 5402 5398 5394 5390 5386 5382 5379 5375 5373 5370 5368 5366 5364 5363 5361 5359 5358 5357 5356 5355 5355 5354 5354 5354 5354 5354 5354 5354 5354 5355 5355 5355 5356 5356 5356 5357 5358 5359
5423 5419 5414 5409 5405 5400 5396 5392 5387 5383 5379 5375 5372 5368 5365 5363 5360 5358 5357 5355 5354 5352 5351 5350 5349 5348 5348 5347 5347 5347 5347 5347 5347 5347 5347 5348 5348 5348 5349 5349 5349 5350 5350 5351
5417 5412 5407 5403 5398 5394 5390 5385 5381 5376 5372 5368 5365 5361 5358 5356 5353 5351 5349 5348 5346 5345 5344 5343 5342 5341 5340 5340 5340 5339 5339 5339 5340 5340 5340 5340 5341 5341 5341 5341 5341 5342 5342 5343
5410 5405 5400 5396 5391 5387 5383 5378 5374 5370 5366 5362 5358 5354 5351 5348 5346 5344 5342 5341 5339 5338 5337 5336 5335 5334 5333 5333 5333 5332 5332 5332 5332 5332 5332 5333 5333 5333 5333 5333 5333 5334 5334 5335
5402 5397 5393 5388 5384 5380 5375 5371 5367 5363 5359 5355 5351 5348 5345 5342 5339 5337 5335 5334 5332 5330 5329 5328 5327 5327 5326 5326 5325 5325 5324 5324 5324 5324 5324 5324 5325 5325 5325 5325 5325 5325 5326 5326
5395 5390 5385 5381 5376 5372 5368 5364 5360 5356 5352 5348 5344 5341 5338 5335 5333 5331 5329 5327 5325 5324 5322 5321 5320 5319 5319 5318 5318 5317 5317 5317 5317 5316 5316 5316 5316 5316 5316 5316 5316 5317 5317 5317